Simultaneous Nadir Overpasses (SNOs) Predictions

Prediction of SNOs between AQUA and METOP-A Satellite Orbit:

Table of predicted SNOs for the next 14.0 days since TLE Epoch: 6/29/2020
Index Date (AQUA) Time (AQUA) Lat,Lon (AQUA) SZA (AQUA ) Date (METOP-A) Time (METOP-A) Lat,Lon (METOP-A) SZA (METOP-A ) Distance(km) Time Diff (sec)
1 06/30/2020 03:34:50 -76.37, -66.06 126.44 06/30/2020 03:34:34 -76.37, -65.90 126.45 4.17 16
2 06/30/2020 04:24:17 76.37, 101.56 53.57 06/30/2020 04:25:14 76.37, 101.45 53.56 2.75 57
3 07/02/2020 22:19:31 76.01,-166.13 53.36 07/02/2020 22:18:23 75.96,-168.25 53.47 57.54 68
4 07/02/2020 23:09:04 -76.34, 0.46 126.26 07/02/2020 23:08:56 -76.35, 0.40 126.24 1.99 8
5 07/02/2020 23:58:32 76.40, 167.92 53.81 07/02/2020 23:59:35 76.40, 167.91 53.80 0.56 63
6 07/05/2020 17:53:52 76.33,-100.70 53.99 07/05/2020 17:52:38 76.26,-100.87 53.96 8.76 74
7 07/05/2020 18:43:19 -76.37, 66.82 125.96 07/05/2020 18:43:17 -76.38, 66.86 125.95 1.65 2
8 07/05/2020 19:32:47 76.42,-125.73 54.11 07/05/2020 19:33:56 76.43,-125.64 54.09 2.29 69
9 07/08/2020 13:28:05 76.31, -34.21 54.29 07/08/2020 13:26:57 76.34, -34.27 54.34 2.95 68
10 07/08/2020 14:17:33 -76.40, 133.16 125.61 07/08/2020 14:17:38 -76.36, 133.15 125.64 4.12 5
11 07/08/2020 15:07:03 76.55, -59.72 54.58 07/08/2020 15:08:14 76.54, -58.87 54.50 21.95 71
12 07/11/2020 09:02:20 76.35, 32.12 54.70 07/11/2020 09:01:18 76.36, 32.17 54.72 1.75 62
13 07/11/2020 09:51:47 -76.39,-160.36 125.26 07/11/2020 09:51:59 -76.39,-160.40 125.26 1.08 12
